Presure
141 162 109 108 115 236 164 139 187 160 131 144 134 133 144 192 214 236 261 174 184 192 183 173 171 171 176 190 191 189 191 199 165 203 183 212 223 221 228 234 165 95 92 88 87
119 168 105 105 117 161 174 126 202 183 181 124 239 137 144 238 234 249 247 211 173 171 175 177 178 179 179 180 180 189 192 184 167 189 189 192 200 210 215 222 220 93 96 98 199
144 123 127 104 111 120 215 131 121 202 136 197 228 245 231 237 229 241 200 167 183 170 169 168 172 173 177 182 178 173 173 189 200 193 192 191 193 200 193 192 213 212 93 101 94
127 156 202 139 118 274 114 256 251 179 118 197 220 246 154 233 226 218 176 170 172 178 182 185 184 185 181 186 193 204 190 194 197 189 189 182 192 193 196 196 197 197 111 94 93
122 185 190 203 147 262 158 207 164 150 231 242 236 237 234 213 201 191 188 188 188 188 185 185 216 212 286 229 212 217 222 233 213 211 216 208 199 200 205 189 195 197 195 116 99
145 179 184 135 160 124 217 203 125 117 237 233 228 235 220 193 181 200 183 212 206 230 257 251 301 386 390 362 369 388 459 454 455 403 241 236 229 217 196 199 197 200 196 196 200
191 203 193 120 108 235 253 219 222 176 233 229 220 208 206 204 201 230 211 223 242 248 262 319 368 374 371 456 464 445 441 429 429 440 465 486 317 255 114 204 196 205 202 201 203
141 204 132 125 176 218 264 221 127 123 232 224 212 203 209 195 220 206 207 224 236 247 248 363 379 365 469 426 401 394 402 388 383 408 415 271 491 414 111 216 200 204 209 204 199
169 125 179 118 137 216 269 240 214 134 213 216 203 199 200 203 203 205 211 220 225 257 318 355 368 440 438 409 573 557 546 512 356 370 375 344 422 468 403 271 128 203 219 214 207
136 127 145 113 201 212 213 256 229 123 209 213 196 200 188 205 196 207 217 216 238 241 339 356 365 449 381 544 531 532 529 541 388 352 363 375 131 461 410 394 232 213 208 216 216
169 164 194 105 195 165 199 216 236 225 223 197 193 197 188 201 201 205 211 217 248 267 360 369 409 432 411 534 516 514 500 529 541 400 356 363 407 445 451 393 385 221 120 215 214
127 154 181 104 182 149 193 209 241 144 214 201 192 196 204 198 199 201 212 218 244 301 359 358 434 406 548 520 503 499 499 505 531 392 345 361 383 414 432 445 397 331 205 132 220
195 185 182 187 193 209 208 200 233 231 211 198 183 186 200 192 202 202 210 222 228 297 359 354 431 395 540 505 482 493 498 486 519 455 370 353 369 383 420 428 403 343 252 228 224
211 192 196 144 177 189 189 192 209 234 209 199 181 182 198 194 195 209 200 211 233 279 346 350 426 392 533 471 380 467 486 489 506 426 471 342 352 365 412 418 426 352 311 239 214
129 132 194 192 170 202 201 183 197 234 213 197 183 186 200 191 202 204 200 212 232 279 298 352 399 398 517 486 367 473 475 488 413 415 350 346 344 356 408 411 423 366 324 289 242
143 188 182 202 171 186 205 203 195 200 220 196 174 190 197 192 193 201 199 224 221 254 285 349 89 406 354 496 375 463 375 461 399 407 326 346 334 348 399 402 420 389 345 297 268
153 148 122 118 155 197 195 207 239 227 216 193 185 196 195 190 193 196 208 228 219 238 291 343 332 412 387 412 448 441 464 399 383 398 361 334 373 332 393 394 413 403 356 307 283
130 159 198 170 194 192 208 201 239 227 214 194 185 200 195 188 192 196 208 221 223 237 298 298 351 402 405 341 478 451 451 413 363 382 373 477 370 321 384 382 400 402 350 307 283
193 147 126 189 170 189 195 254 236 223 209 192 187 197 195 188 189 193 203 207 225 237 265 282 337 354 406 380 491 410 439 467 464 353 357 408 372 320 375 371 388 398 351 322 284
173 186 175 192 186 188 185 250 185 213 208 190 188 193 195 189 189 192 197 199 220 234 231 271 323 334 380 398 345 496 438 451 455 325 334 349 406 318 357 363 376 418 350 338 286
180 160 182 116 179 191 204 251 231 219 204 188 191 185 193 191 188 191 200 213 226 234 229 258 304 325 347 403 366 331 422 538 462 459 449 444 452 332 345 356 367 401 360 340 297
171 124 197 197 184 203 210 247 229 219 200 187 189 187 185 188 187 190 196 212 218 220 232 246 272 318 318 367 400 353 497 424 531 445 460 436 450 346 327 344 357 378 383 337 308
201 178 191 172 207 218 229 236 220 187 198 191 190 186 186 187 190 188 196 204 216 217 234 233 269 267 326 337 389 367 333 504 400 532 454 428 417 351 309 337 346 364 407 345 316
208 136 189 205 154 237 247 228 199 194 198 192 190 188 188 203 194 189 195 198 210 245 223 227 256 276 318 323 373 402 351 411 510 475 521 458 411 366 304 334 335 355 411 376 335
205 200 199 240 236 252 232 225 218 212 198 190 190 189 184 198 194 187 193 196 205 214 214 218 249 270 271 330 335 373 377 329 541 528 477 543 443 395 328 313 330 339 376 413 365
204 172 247 137 237 244 205 218 214 210 199 188 157 191 184 192 194 185 192 196 199 241 210 218 232 258 255 302 324 374 399 360 309 488 517 481 549 442 366 300 318 332 355 455 379
184 208 233 225 242 236 156 211 209 203 201 188 189 186 199 192 192 191 194 198 188 235 207 210 222 251 275 271 330 336 388 389 337 512 506 517 488 548 436 357 298 319 339 413 387
Wind_Speed
40 44 29 33 43 31 43 44 41 47 54 49 55 54 51 51 53 55 48 58 61 66 67 70 70 74 77 85 85 89 87 80 83 88 89 93 88 92 93 90 85 68 70 60 55
40 43 30 32 46 36 43 50 38 43 45 59 44 58 55 50 52 49 52 59 59 63 68 71 76 78 83 87 91 94 90 85 79 95 94 94 93 91 93 92 96 73 79 74 89
45 42 46 31 40 46 33 53 55 43 54 44 42 44 47 47 50 50 51 56 59 65 69 74 78 84 88 93 98 92 85 99 101 98 96 93 95 95 97 98 97 96 80 80 71
46 56 66 51 46 29 51 38 39 47 56 44 44 40 60 47 48 52 53 57 62 68 72 76 83 92 97 104 108 109 104 106 104 96 96 88 98 99 97 100 102 100 88 79 70
45 63 57 52 52 36 48 38 52 54 44 41 42 42 44 47 48 48 53 58 64 71 77 85 87 93 93 107 120 123 123 124 110 108 112 110 99 104 104 104 106 104 100 87 86
51 50 62 49 52 54 36 42 54 54 44 43 44 45 46 47 52 53 54 60 58 72 86 78 93 84 81 82 85 85 73 70 71 83 121 119 114 109 103 113 114 104 100 96 87
65 54 60 45 40 76 46 40 43 51 46 46 46 48 51 51 55 67 61 71 80 88 92 97 86 83 83 78 68 65 63 60 57 59 58 60 106 113 39 117 118 115 108 104 97
48 54 48 48 52 85 48 47 53 56 48 47 48 52 57 55 68 63 68 83 90 91 90 88 85 82 75 65 63 60 59 55 55 57 56 29 56 86 44 116 118 122 116 106 90
61 48 61 42 52 90 50 54 53 59 54 50 50 56 57 63 66 71 76 87 92 98 96 92 87 82 66 59 32 30 35 37 53 56 57 41 43 66 96 115 62 126 122 110 100
46 49 52 42 69 82 81 53 56 57 57 54 54 56 59 70 69 78 86 90 96 96 96 90 85 71 62 37 33 27 28 26 45 58 54 51 27 55 88 100 125 129 111 112 105
64 53 59 43 58 59 63 97 61 59 58 56 59 65 63 76 78 83 88 97 102 106 94 90 85 70 63 30 28 28 25 22 15 50 52 57 54 52 58 97 108 130 55 112 103
38 46 69 42 66 59 63 98 60 62 60 61 65 69 75 76 84 89 94 99 102 101 97 91 85 71 34 31 28 23 22 19 15 47 52 57 54 56 57 63 100 122 117 63 110
55 64 62 62 59 88 91 82 56 64 61 61 66 72 75 75 83 89 94 102 99 105 98 95 86 75 35 32 26 23 19 15 13 32 52 52 53 56 55 62 94 117 129 123 116
61 56 72 58 65 74 65 74 69 67 61 60 65 70 78 80 81 93 86 101 104 111 104 95 86 75 36 36 39 22 16 13 10 36 33 48 52 57 55 59 72 111 125 130 113
45 47 66 61 58 90 80 63 62 61 62 62 66 72 79 81 92 95 93 105 107 114 110 99 90 76 38 37 40 22 17 10 23 33 45 51 53 59 54 58 65 103 122 127 128
56 61 64 87 66 67 99 88 61 62 57 64 68 74 79 82 88 93 93 103 102 115 111 100 19 79 71 41 41 23 21 9 20 30 44 49 51 55 54 59 64 94 117 129 128
53 52 43 43 59 88 93 106 57 59 56 62 68 74 76 80 86 89 96 100 97 104 104 102 96 78 71 47 39 34 20 9 17 25 37 45 52 52 54 59 64 87 111 128 126
47 68 86 69 86 79 105 92 56 57 55 62 68 74 75 78 83 89 98 99 98 108 109 108 101 87 72 64 36 30 21 11 15 22 32 34 49 52 53 59 64 86 110 126 125
74 57 44 86 63 75 96 57 56 57 54 60 66 71 73 77 81 86 95 95 98 108 113 108 104 99 79 68 36 44 27 13 6 19 27 34 47 53 53 59 63 84 108 124 128
68 72 69 85 79 92 87 54 60 57 54 59 63 69 72 75 79 85 90 91 98 106 109 110 108 100 90 72 64 30 31 20 9 18 24 32 46 51 51 57 62 71 107 120 129
72 57 67 45 68 87 102 46 52 52 53 59 62 66 70 74 76 82 92 96 100 105 105 111 107 105 98 77 67 61 39 15 10 7 18 29 37 52 51 56 61 68 101 116 130
68 41 90 92 66 99 96 46 51 49 51 58 59 64 67 71 74 80 87 97 96 97 105 110 106 107 98 93 70 63 29 31 9 7 15 27 36 51 51 54 60 67 89 112 127
99 62 80 67 102 72 48 47 49 50 50 56 58 61 65 68 72 76 84 92 97 98 107 109 103 99 101 99 80 67 57 23 27 9 12 25 35 51 52 55 57 65 84 108 123
103 50 81 101 52 66 42 45 47 49 49 55 57 60 64 72 73 75 81 86 94 107 103 108 107 107 108 98 86 68 58 40 20 16 10 21 33 49 51 53 58 61 75 100 119
93 88 89 62 58 39 42 42 44 46 47 53 55 59 61 65 70 72 78 82 89 94 98 101 106 103 103 100 95 84 63 51 23 19 12 14 31 40 51 52 57 61 70 88 108
90 61 52 38 50 37 39 40 43 45 46 52 56 58 58 63 66 68 73 79 83 96 92 98 103 100 98 105 95 89 70 57 45 27 19 12 17 38 48 53 56 61 65 76 99
73 44 50 51 40 37 41 39 42 45 46 50 52 56 60 62 65 67 71 78 75 91 87 90 98 96 100 96 101 95 80 65 49 32 22 17 15 18 39 52 58 60 65 81 99
Wind_Direction
311 318 346 347 346 306 319 320 308 319 321 303 316 315 305 287 276 276 282 273 270 270 270 272 270 270 269 267 263 262 261 257 253 253 250 248 246 251 250 247 238 218 231 229 226
336 349 342 344 339 336 316 326 311 311 307 327 302 314 306 289 286 288 281 270 275 276 274 273 272 270 269 267 266 263 261 257 251 253 253 252 252 249 251 251 253 217 225 226 249
323 327 317 336 339 331 317 318 333 305 328 298 301 304 293 291 285 286 277 279 277 276 275 274 272 270 267 264 262 265 265 257 255 252 250 250 251 251 252 253 250 251 220 226 224
323 331 335 326 334 323 339 312 318 323 332 300 304 306 313 291 286 281 285 286 284 282 280 278 274 270 267 267 265 263 258 257 255 257 254 252 250 250 249 250 250 251 220 227 226
337 330 337 340 321 339 327 321 323 323 322 317 312 307 301 294 292 291 290 287 287 285 280 275 278 274 278 269 265 265 263 261 259 256 252 250 249 246 246 251 249 247 249 227 227
325 349 333 324 325 329 330 318 330 333 326 322 316 313 304 302 300 296 294 297 290 305 312 307 308 307 300 293 287 282 277 270 264 260 254 251 246 241 244 245 249 247 246 248 244
329 344 334 336 331 0 345 336 338 332 331 325 319 313 310 306 306 316 315 317 323 325 320 317 316 310 304 302 292 283 275 266 261 250 249 242 241 241 245 239 245 245 243 240 242
334 335 323 334 337 0 344 340 330 335 332 328 324 318 319 316 323 322 326 330 331 325 322 325 321 314 314 303 292 282 273 263 260 246 243 255 229 223 237 235 238 243 241 237 237
317 333 325 334 331 1 340 346 335 324 334 332 326 322 323 325 326 331 333 334 332 331 330 331 327 324 317 307 303 291 277 266 251 243 241 242 229 222 218 225 229 238 237 236 233
346 335 322 330 354 358 0 346 339 334 335 334 325 325 325 331 331 334 337 336 335 334 339 334 329 331 320 315 306 295 281 276 248 243 235 234 244 220 216 213 222 231 236 236 232
321 334 322 327 340 323 346 355 342 338 337 329 328 330 331 335 335 337 339 338 339 341 342 340 340 339 330 323 312 301 284 281 258 229 230 227 221 217 215 213 207 223 228 232 233
340 334 349 327 321 325 344 351 341 334 338 334 331 332 335 337 337 339 340 341 342 345 349 345 347 343 342 333 323 310 294 279 251 222 227 224 216 210 212 212 208 208 225 219 229
340 319 339 327 334 350 354 348 341 338 337 334 334 332 334 337 339 340 343 342 345 349 353 351 352 350 344 336 334 323 307 277 260 223 218 222 213 209 210 210 208 203 216 222 225
347 331 340 326 322 341 336 342 342 337 335 334 333 332 335 339 341 342 347 345 347 353 356 356 357 355 347 347 346 333 317 286 259 220 214 219 213 209 209 208 206 201 204 217 220
339 330 346 331 328 344 340 324 334 336 333 333 333 333 336 341 341 344 348 345 348 354 357 359 1 359 349 350 349 333 326 295 225 219 213 216 211 210 208 205 203 200 202 208 215
326 319 317 340 318 333 344 341 328 336 336 331 336 334 339 343 342 344 348 346 351 355 357 2 302 2 360 346 358 346 332 296 233 221 222 217 214 210 206 203 200 198 200 204 210
337 332 330 329 329 340 341 342 335 332 334 331 333 335 338 343 343 344 345 349 351 358 359 6 5 6 4 355 350 348 346 293 246 226 220 220 212 210 205 203 200 196 200 203 205
328 314 333 316 338 334 338 339 332 332 332 332 334 333 338 343 343 345 345 349 352 358 3 4 8 9 7 3 360 357 349 317 254 225 221 203 213 213 207 203 200 194 200 201 204
327 320 331 326 322 331 334 332 329 331 329 331 335 333 336 342 345 346 347 351 355 359 359 3 9 9 8 8 4 3 358 342 301 232 225 215 213 213 207 205 201 195 198 199 203
301 316 306 327 330 334 333 330 326 329 327 331 335 334 335 342 345 347 348 351 353 0 3 2 7 9 11 8 6 2 2 351 318 247 234 226 208 211 208 206 202 196 198 200 203
315 325 321 321 317 329 331 326 322 326 325 330 333 337 337 341 346 347 347 350 355 359 3 1 8 9 11 11 8 6 3 2 323 266 218 212 208 210 208 205 203 199 199 201 202
308 316 320 320 320 324 327 322 319 323 323 328 333 336 339 342 346 347 349 350 354 358 1 2 7 10 9 12 10 7 1 360 335 292 217 213 210 209 207 206 206 199 198 201 202
314 307 314 314 320 321 322 318 318 329 321 326 331 335 338 341 345 348 349 351 353 357 359 2 6 7 11 11 11 7 4 352 354 306 235 217 212 208 207 205 208 203 199 203 203
310 309 314 316 319 319 318 315 321 324 320 325 331 335 339 339 344 348 349 352 352 358 360 2 2 8 10 10 11 10 5 1 343 334 286 225 217 211 208 206 208 207 203 202 207
307 310 311 307 308 318 314 312 311 315 318 325 329 333 339 340 344 348 350 352 352 358 360 3 359 8 8 10 10 9 8 1 347 332 319 281 223 215 213 208 208 207 206 208 209
305 307 298 313 307 315 316 309 309 313 316 325 340 331 338 341 344 346 350 350 353 357 359 1 359 4 5 9 9 10 8 6 357 352 319 294 284 223 216 210 209 210 207 210 203
303 297 297 305 308 310 325 305 307 311 315 323 327 332 334 340 343 346 348 349 352 356 359 3 360 2 8 8 10 9 9 5 2 352 343 305 273 273 224 217 211 211 211 207 208